Time,TemperatureF,DewpointF,PressureIn,WindDirection,WindDirectionDegrees,WindSpeedMPH,WindSpeedGustMPH,Humidity,HourlyPrecipIn,Conditions,Clouds,dailyrainin,SoftwareType,DateUTC
2013-05-18 00:00:00,69.6,53.7,30.13,North,360,6.0,6.0,57,0.00,,,0.00,Wunderground v.1.15,2013-05-18 04:00:00,
2013-05-18 00:02:00,69.5,54.1,30.13,North,360,6.0,6.0,58,0.00,,,0.00,Wunderground v.1.15,2013-05-18 04:02:00,
2013-05-18 00:04:00,69.5,54.1,30.14,North,360,6.0,6.0,58,0.00,,,0.00,Wunderground v.1.15,2013-05-18 04:04:00,
2013-05-18 00:08:00,69.5,54.5,30.14,North,360,6.0,8.0,59,0.00,,,0.00,Wunderground v.1.15,2013-05-18 04:08:00,
2013-05-18 00:10:00,69.3,54.8,30.14,North,360,6.0,7.0,60,0.00,,,0.00,Wunderground v.1.15,2013-05-18 04:10:00,
2013-05-18 00:14:00,68.9,54.4,30.13,North,360,7.0,8.0,60,0.00,,,0.00,Wunderground v.1.15,2013-05-18 04:14:00,
2013-05-18 00:16:00,68.8,54.8,30.14,North,360,6.0,8.0,61,0.00,,,0.00,Wunderground v.1.15,2013-05-18 04:16:00,
2013-05-18 00:22:00,68.6,55.5,30.14,North,360,7.0,9.0,63,0.00,,,0.00,Wunderground v.1.15,2013-05-18 04:22:00,
2013-05-18 00:24:00,68.5,55.4,30.14,North,360,7.0,9.0,63,0.00,,,0.00,Wunderground v.1.15,2013-05-18 04:24:00,
2013-05-18 00:26:00,68.4,55.3,30.14,North,360,6.0,9.0,63,0.00,,,0.00,Wunderground v.1.15,2013-05-18 04:26:00,
2013-05-18 00:32:00,68.1,55.9,30.14,North,360,5.0,6.0,65,0.00,,,0.00,Wunderground v.1.15,2013-05-18 04:32:00,
2013-05-18 00:34:00,68.0,55.8,30.14,North,360,5.0,6.0,65,0.00,,,0.00,Wunderground v.1.15,2013-05-18 04:34:00,
2013-05-18 00:36:00,68.0,55.8,30.14,North,360,4.0,6.0,65,0.00,,,0.00,Wunderground v.1.15,2013-05-18 04:36:00,
2013-05-18 00:40:00,68.1,55.9,30.14,North,360,4.0,4.0,65,0.00,,,0.00,Wunderground v.1.15,2013-05-18 04:40:00,
2013-05-18 00:42:00,68.0,56.2,30.14,North,360,4.0,4.0,66,0.00,,,0.00,Wunderground v.1.15,2013-05-18 04:42:00,
2013-05-18 00:44:00,67.9,56.1,30.14,North,360,4.0,4.0,66,0.00,,,0.00,Wunderground v.1.15,2013-05-18 04:44:00,
2013-05-18 00:46:00,67.8,56.4,30.14,North,360,4.0,6.0,67,0.00,,,0.00,Wunderground v.1.15,2013-05-18 04:46:00,
2013-05-18 00:52:00,67.5,56.6,30.14,North,360,5.0,6.0,68,0.00,,,0.00,Wunderground v.1.15,2013-05-18 04:52:00,
2013-05-18 00:56:00,67.5,57.0,30.14,North,360,5.0,6.0,69,0.00,,,0.00,Wunderground v.1.15,2013-05-18 04:56:00,
2013-05-18 01:00:00,67.4,56.9,30.15,North,360,6.0,6.0,69,0.00,,,0.00,Wunderground v.1.15,2013-05-18 05:00:00,
2013-05-18 01:02:00,67.5,57.0,30.15,North,360,6.0,6.0,69,0.00,,,0.00,Wunderground v.1.15,2013-05-18 05:02:00,
2013-05-18 01:04:00,67.5,57.0,30.15,North,360,6.0,6.0,69,0.00,,,0.00,Wunderground v.1.15,2013-05-18 05:04:00,
2013-05-18 01:06:00,67.6,57.1,30.14,North,360,5.0,6.0,69,0.00,,,0.00,Wunderground v.1.15,2013-05-18 05:06:00,
2013-05-18 01:10:00,67.6,57.1,30.14,North,360,5.0,11.0,69,0.00,,,0.00,Wunderground v.1.15,2013-05-18 05:10:00,
2013-05-18 01:12:00,67.3,56.8,30.14,North,360,6.0,11.0,69,0.00,,,0.00,Wunderground v.1.15,2013-05-18 05:12:00,
2013-05-18 01:14:00,67.2,57.1,30.14,North,360,7.0,11.0,70,0.00,,,0.00,Wunderground v.1.15,2013-05-18 05:14:00,
2013-05-18 01:16:00,67.1,57.0,30.14,North,360,8.0,11.0,70,0.00,,,0.00,Wunderground v.1.15,2013-05-18 05:16:00,
2013-05-18 01:18:00,67.0,56.9,30.14,North,360,8.0,11.0,70,0.00,,,0.00,Wunderground v.1.15,2013-05-18 05:18:00,
2013-05-18 01:22:00,66.7,57.0,30.14,North,360,8.0,9.0,71,0.00,,,0.00,Wunderground v.1.15,2013-05-18 05:22:00,
2013-05-18 01:24:00,66.7,57.0,30.14,North,360,8.0,9.0,71,0.00,,,0.00,Wunderground v.1.15,2013-05-18 05:24:00,
2013-05-18 01:30:00,66.7,57.0,30.14,North,360,7.0,8.0,71,0.00,,,0.00,Wunderground v.1.15,2013-05-18 05:30:00,
2013-05-18 01:32:00,66.8,57.1,30.14,North,360,7.0,8.0,71,0.00,,,0.00,Wunderground v.1.15,2013-05-18 05:32:00,
2013-05-18 01:36:00,66.9,57.2,30.14,North,360,6.0,8.0,71,0.00,,,0.00,Wunderground v.1.15,2013-05-18 05:36:00,
2013-05-18 01:38:00,66.9,57.2,30.13,North,360,6.0,8.0,71,0.00,,,0.00,Wunderground v.1.15,2013-05-18 05:38:00,
2013-05-18 01:40:00,66.8,57.1,30.14,North,360,7.0,9.0,71,0.00,,,0.00,Wunderground v.1.15,2013-05-18 05:40:00,
2013-05-18 01:44:00,66.7,57.0,30.13,North,360,7.0,9.0,71,0.00,,,0.00,Wunderground v.1.15,2013-05-18 05:44:00,
2013-05-18 01:46:00,66.7,57.0,30.14,North,360,7.0,9.0,71,0.00,,,0.00,Wunderground v.1.15,2013-05-18 05:46:00,
2013-05-18 01:50:00,66.8,57.1,30.14,North,360,6.0,6.0,71,0.00,,,0.00,Wunderground v.1.15,2013-05-18 05:50:00,
2013-05-18 01:52:00,66.9,57.2,30.14,North,360,6.0,6.0,71,0.00,,,0.00,Wunderground v.1.15,2013-05-18 05:52:00,
2013-05-18 01:54:00,66.9,56.8,30.14,North,360,5.0,6.0,70,0.00,,,0.00,Wunderground v.1.15,2013-05-18 05:54:00,
2013-05-18 01:56:00,67.0,56.9,30.14,North,360,5.0,6.0,70,0.00,,,0.00,Wunderground v.1.15,2013-05-18 05:56:00,
2013-05-18 02:02:00,66.7,56.6,30.14,North,360,5.0,7.0,70,0.00,,,0.00,Wunderground v.1.15,2013-05-18 06:02:00,
2013-05-18 02:04:00,66.5,56.8,30.14,North,360,5.0,7.0,71,0.00,,,0.00,Wunderground v.1.15,2013-05-18 06:04:00,
2013-05-18 02:06:00,66.4,56.7,30.14,North,360,5.0,7.0,71,0.00,,,0.00,Wunderground v.1.15,2013-05-18 06:06:00,
2013-05-18 02:08:00,66.4,56.7,30.14,North,360,5.0,7.0,71,0.00,,,0.00,Wunderground v.1.15,2013-05-18 06:08:00,
2013-05-18 02:12:00,66.5,56.8,30.14,North,360,5.0,9.0,71,0.00,,,0.00,Wunderground v.1.15,2013-05-18 06:12:00,
2013-05-18 02:18:00,66.7,57.0,30.14,North,360,5.0,9.0,71,0.00,,,0.00,Wunderground v.1.15,2013-05-18 06:18:00,
2013-05-18 02:20:00,66.7,56.6,30.14,North,360,4.0,4.0,70,0.00,,,0.00,Wunderground v.1.15,2013-05-18 06:20:00,
2013-05-18 02:22:00,66.7,56.6,30.14,North,360,4.0,5.0,70,0.00,,,0.00,Wunderground v.1.15,2013-05-18 06:22:00,
2013-05-18 02:28:00,66.7,56.6,30.14,North,360,4.0,5.0,70,0.00,,,0.00,Wunderground v.1.15,2013-05-18 06:28:00,
2013-05-18 02:32:00,66.7,56.6,30.14,North,360,5.0,7.0,70,0.00,,,0.00,Wunderground v.1.15,2013-05-18 06:32:00,
2013-05-18 02:34:00,66.6,56.5,30.14,North,360,4.0,7.0,70,0.00,,,0.00,Wunderground v.1.15,2013-05-18 06:34:00,
2013-05-18 02:38:00,66.4,56.3,30.14,North,360,5.0,7.0,70,0.00,,,0.00,Wunderground v.1.15,2013-05-18 06:38:00,
2013-05-18 02:40:00,66.2,56.1,30.14,North,360,6.0,6.0,70,0.00,,,0.00,Wunderground v.1.15,2013-05-18 06:40:00,
2013-05-18 02:42:00,65.9,55.8,30.14,North,360,6.0,9.0,70,0.00,,,0.00,Wunderground v.1.15,2013-05-18 06:42:00,
2013-05-18 02:48:00,65.8,56.1,30.14,North,360,6.0,9.0,71,0.00,,,0.00,Wunderground v.1.15,2013-05-18 06:48:00,
2013-05-18 02:50:00,65.9,56.2,30.14,North,360,6.0,6.0,71,0.00,,,0.00,Wunderground v.1.15,2013-05-18 06:50:00,
2013-05-18 02:54:00,66.0,55.9,30.14,North,360,5.0,6.0,70,0.00,,,0.00,Wunderground v.1.15,2013-05-18 06:54:00,
2013-05-18 02:56:00,66.0,55.9,30.14,North,360,6.0,10.0,70,0.00,,,0.00,Wunderground v.1.15,2013-05-18 06:56:00,
2013-05-18 03:00:00,65.9,55.8,30.14,North,360,7.0,12.0,70,0.00,,,0.00,Wunderground v.1.15,2013-05-18 07:00:00,
2013-05-18 03:02:00,65.9,55.8,30.14,North,360,7.0,12.0,70,0.00,,,0.00,Wunderground v.1.15,2013-05-18 07:02:00,
2013-05-18 03:06:00,66.0,55.5,30.14,North,360,7.0,12.0,69,0.00,,,0.00,Wunderground v.1.15,2013-05-18 07:06:00,
2013-05-18 03:08:00,65.9,55.4,30.14,North,360,7.0,12.0,69,0.00,,,0.00,Wunderground v.1.15,2013-05-18 07:08:00,
2013-05-18 03:10:00,66.0,55.5,30.14,North,360,6.0,6.0,69,0.00,,,0.00,Wunderground v.1.15,2013-05-18 07:10:00,
2013-05-18 03:12:00,66.0,55.5,30.14,North,360,6.0,6.0,69,0.00,,,0.00,Wunderground v.1.15,2013-05-18 07:12:00,
2013-05-18 03:18:00,65.7,55.6,30.14,North,360,5.0,7.0,70,0.00,,,0.00,Wunderground v.1.15,2013-05-18 07:18:00,
2013-05-18 03:24:00,65.6,55.5,30.14,North,360,7.0,10.0,70,0.00,,,0.00,Wunderground v.1.15,2013-05-18 07:24:00,
2013-05-18 03:26:00,65.7,55.6,30.14,North,360,7.0,10.0,70,0.00,,,0.00,Wunderground v.1.15,2013-05-18 07:26:00,
2013-05-18 03:28:00,65.7,55.6,30.14,North,360,7.0,11.0,70,0.00,,,0.00,Wunderground v.1.15,2013-05-18 07:28:00,
2013-05-18 03:32:00,65.6,55.5,30.14,North,360,7.0,7.0,70,0.00,,,0.00,Wunderground v.1.15,2013-05-18 07:32:00,
2013-05-18 03:34:00,65.7,55.6,30.15,North,360,6.0,7.0,70,0.00,,,0.00,Wunderground v.1.15,2013-05-18 07:34:00,
2013-05-18 03:36:00,65.8,55.7,30.15,North,360,6.0,7.0,70,0.00,,,0.00,Wunderground v.1.15,2013-05-18 07:36:00,
2013-05-18 03:40:00,65.8,55.7,30.15,North,360,5.0,5.0,70,0.00,,,0.00,Wunderground v.1.15,2013-05-18 07:40:00,
2013-05-18 03:42:00,65.8,55.7,30.15,North,360,4.0,5.0,70,0.00,,,0.00,Wunderground v.1.15,2013-05-18 07:42:00,
2013-05-18 03:44:00,65.8,55.7,30.15,North,360,4.0,5.0,70,0.00,,,0.00,Wunderground v.1.15,2013-05-18 07:44:00,
2013-05-18 03:46:00,65.7,55.6,30.15,North,360,5.0,5.0,70,0.00,,,0.00,Wunderground v.1.15,2013-05-18 07:46:00,
2013-05-18 03:50:00,65.3,55.7,30.15,North,360,5.0,5.0,71,0.00,,,0.00,Wunderground v.1.15,2013-05-18 07:50:00,
2013-05-18 03:54:00,65.2,55.6,30.16,North,360,6.0,6.0,71,0.00,,,0.00,Wunderground v.1.15,2013-05-18 07:54:00,
2013-05-18 04:00:00,65.2,55.6,30.16,North,360,5.0,5.0,71,0.00,,,0.00,Wunderground v.1.15,2013-05-18 08:00:00,
2013-05-18 04:04:00,65.2,55.6,30.16,North,360,5.0,7.0,71,0.00,,,0.00,Wunderground v.1.15,2013-05-18 08:04:00,
2013-05-18 04:06:00,65.2,55.6,30.16,North,360,5.0,7.0,71,0.00,,,0.00,Wunderground v.1.15,2013-05-18 08:06:00,
2013-05-18 04:08:00,65.3,55.7,30.16,North,360,5.0,7.0,71,0.00,,,0.00,Wunderground v.1.15,2013-05-18 08:08:00,
2013-05-18 04:14:00,65.4,55.7,30.16,North,360,4.0,6.0,71,0.00,,,0.00,Wunderground v.1.15,2013-05-18 08:14:00,
2013-05-18 04:16:00,65.4,55.4,30.16,North,360,5.0,6.0,70,0.00,,,0.00,Wunderground v.1.15,2013-05-18 08:16:00,
2013-05-18 04:18:00,65.5,55.8,30.16,North,360,5.0,6.0,71,0.00,,,0.00,Wunderground v.1.15,2013-05-18 08:18:00,
2013-05-18 04:20:00,65.5,55.5,30.16,North,360,5.0,5.0,70,0.00,,,0.00,Wunderground v.1.15,2013-05-18 08:20:00,
2013-05-18 04:22:00,65.5,55.5,30.16,North,360,5.0,5.0,70,0.00,,,0.00,Wunderground v.1.15,2013-05-18 08:22:00,
2013-05-18 04:26:00,65.4,55.4,30.16,North,360,6.0,10.0,70,0.00,,,0.00,Wunderground v.1.15,2013-05-18 08:26:00,
2013-05-18 04:28:00,65.3,55.3,30.16,North,360,6.0,10.0,70,0.00,,,0.00,Wunderground v.1.15,2013-05-18 08:28:00,
2013-05-18 04:30:00,65.2,55.2,30.16,North,360,7.0,7.0,70,0.00,,,0.00,Wunderground v.1.15,2013-05-18 08:30:00,
2013-05-18 04:32:00,65.3,55.7,30.16,North,360,7.0,9.0,71,0.00,,,0.00,Wunderground v.1.15,2013-05-18 08:32:00,
2013-05-18 04:34:00,65.5,55.8,30.16,North,360,7.0,9.0,71,0.00,,,0.00,Wunderground v.1.15,2013-05-18 08:34:00,
2013-05-18 04:36:00,65.6,55.5,30.16,North,360,7.0,9.0,70,0.00,,,0.00,Wunderground v.1.15,2013-05-18 08:36:00,
2013-05-18 04:40:00,65.5,55.5,30.16,North,360,6.0,7.0,70,0.00,,,0.00,Wunderground v.1.15,2013-05-18 08:40:00,
2013-05-18 04:42:00,65.4,55.7,30.16,North,360,7.0,9.0,71,0.00,,,0.00,Wunderground v.1.15,2013-05-18 08:42:00,
2013-05-18 04:44:00,65.4,55.7,30.16,North,360,7.0,9.0,71,0.00,,,0.00,Wunderground v.1.15,2013-05-18 08:44:00,
2013-05-18 04:48:00,65.2,55.6,30.16,North,360,8.0,10.0,71,0.00,,,0.00,Wunderground v.1.15,2013-05-18 08:48:00,
2013-05-18 04:50:00,65.1,55.8,30.16,North,360,7.0,10.0,72,0.00,,,0.00,Wunderground v.1.15,2013-05-18 08:50:00,
2013-05-18 04:56:00,65.0,55.8,30.16,North,360,7.0,11.0,72,0.00,,,0.00,Wunderground v.1.15,2013-05-18 08:56:00,
2013-05-18 04:58:00,64.9,55.7,30.16,North,360,7.0,11.0,72,0.00,,,0.00,Wunderground v.1.15,2013-05-18 08:58:00,
2013-05-18 05:00:00,64.8,55.9,30.16,North,360,7.0,11.0,73,0.00,,,0.00,Wunderground v.1.15,2013-05-18 09:00:00,
2013-05-18 05:04:00,64.7,55.8,30.16,North,360,7.0,11.0,73,0.00,,,0.00,Wunderground v.1.15,2013-05-18 09:04:00,
2013-05-18 05:06:00,64.7,55.8,30.16,North,360,7.0,11.0,73,0.00,,,0.00,Wunderground v.1.15,2013-05-18 09:06:00,
2013-05-18 05:08:00,64.8,55.9,30.16,North,360,6.0,11.0,73,0.00,,,0.00,Wunderground v.1.15,2013-05-18 09:08:00,
2013-05-18 05:10:00,64.9,56.4,30.16,North,360,6.0,8.0,74,0.00,,,0.00,Wunderground v.1.15,2013-05-18 09:10:00,
2013-05-18 05:12:00,65.1,56.2,30.16,North,360,6.0,8.0,73,0.00,,,0.00,Wunderground v.1.15,2013-05-18 09:12:00,
2013-05-18 05:16:00,65.3,56.4,30.17,North,360,5.0,10.0,73,0.00,,,0.00,Wunderground v.1.15,2013-05-18 09:16:00,
2013-05-18 05:18:00,65.2,56.3,30.16,North,360,5.0,10.0,73,0.00,,,0.00,Wunderground v.1.15,2013-05-18 09:18:00,
2013-05-18 05:20:00,65.1,56.6,30.17,North,360,5.0,5.0,74,0.00,,,0.00,Wunderground v.1.15,2013-05-18 09:20:00,
2013-05-18 05:24:00,64.9,56.4,30.17,North,360,6.0,6.0,74,0.00,,,0.00,Wunderground v.1.15,2013-05-18 09:24:00,
2013-05-18 05:26:00,64.7,56.2,30.17,North,360,6.0,6.0,74,0.00,,,0.00,Wunderground v.1.15,2013-05-18 09:26:00,
2013-05-18 05:28:00,64.6,56.1,30.17,North,360,6.0,6.0,74,0.00,,,0.00,Wunderground v.1.15,2013-05-18 09:28:00,
2013-05-18 05:34:00,64.3,56.2,30.17,North,360,6.0,6.0,75,0.00,,,0.00,Wunderground v.1.15,2013-05-18 09:34:00,
2013-05-18 05:36:00,64.2,56.1,30.17,North,360,5.0,7.0,75,0.00,,,0.00,Wunderground v.1.15,2013-05-18 09:36:00,
2013-05-18 05:38:00,64.1,56.0,30.16,North,360,6.0,7.0,75,0.00,,,0.00,Wunderground v.1.15,2013-05-18 09:38:00,
2013-05-18 05:40:00,64.1,56.0,30.17,North,360,7.0,10.0,75,0.00,,,0.00,Wunderground v.1.15,2013-05-18 09:40:00,
2013-05-18 05:42:00,64.1,56.4,30.16,North,360,7.0,10.0,76,0.00,,,0.00,Wunderground v.1.15,2013-05-18 09:42:00,
2013-05-18 05:44:00,64.1,56.4,30.16,North,360,7.0,10.0,76,0.00,,,0.00,Wunderground v.1.15,2013-05-18 09:44:00,
2013-05-18 05:46:00,64.1,56.4,30.16,North,360,7.0,10.0,76,0.00,,,0.00,Wunderground v.1.15,2013-05-18 09:46:00,
2013-05-18 05:52:00,64.0,55.9,30.17,North,360,7.0,11.0,75,0.00,,,0.00,Wunderground v.1.15,2013-05-18 09:52:00,
2013-05-18 05:54:00,64.0,56.3,30.17,North,360,6.0,11.0,76,0.00,,,0.00,Wunderground v.1.15,2013-05-18 09:54:00,
2013-05-18 05:56:00,64.1,56.0,30.17,North,360,6.0,11.0,75,0.00,,,0.00,Wunderground v.1.15,2013-05-18 09:56:00,
2013-05-18 06:00:00,64.3,56.2,30.17,North,360,6.0,6.0,75,0.00,,,0.00,Wunderground v.1.15,2013-05-18 10:00:00,
2013-05-18 06:02:00,64.3,56.2,30.17,North,360,5.0,6.0,75,0.00,,,0.00,Wunderground v.1.15,2013-05-18 10:02:00,
2013-05-18 06:04:00,64.2,55.7,30.17,North,360,5.0,6.0,74,0.00,,,0.00,Wunderground v.1.15,2013-05-18 10:04:00,
2013-05-18 06:10:00,64.0,55.9,30.17,North,360,5.0,6.0,75,0.00,,,0.00,Wunderground v.1.15,2013-05-18 10:10:00,
2013-05-18 06:12:00,63.9,55.8,30.18,North,360,5.0,6.0,75,0.00,,,0.00,Wunderground v.1.15,2013-05-18 10:12:00,
2013-05-18 06:16:00,64.3,56.2,30.18,North,360,5.0,7.0,75,0.00,,,0.00,Wunderground v.1.15,2013-05-18 10:16:00,
2013-05-18 06:18:00,64.5,56.0,30.18,North,360,5.0,7.0,74,0.00,,,0.00,Wunderground v.1.15,2013-05-18 10:18:00,
2013-05-18 06:22:00,64.9,56.4,30.18,North,360,5.0,5.0,74,0.00,,,0.00,Wunderground v.1.15,2013-05-18 10:22:00,
2013-05-18 06:24:00,64.9,56.0,30.17,North,360,5.0,7.0,73,0.00,,,0.00,Wunderground v.1.15,2013-05-18 10:24:00,
2013-05-18 06:26:00,64.8,55.9,30.17,North,360,5.0,7.0,73,0.00,,,0.00,Wunderground v.1.15,2013-05-18 10:26:00,
2013-05-18 06:28:00,64.6,55.7,30.18,North,360,6.0,7.0,73,0.00,,,0.00,Wunderground v.1.15,2013-05-18 10:28:00,
2013-05-18 06:30:00,64.5,56.0,30.18,North,360,6.0,6.0,74,0.00,,,0.00,Wunderground v.1.15,2013-05-18 10:30:00,
2013-05-18 06:34:00,64.4,55.9,30.18,North,360,6.0,8.0,74,0.00,,,0.00,Wunderground v.1.15,2013-05-18 10:34:00,
2013-05-18 06:36:00,64.5,56.0,30.18,North,360,6.0,8.0,74,0.00,,,0.00,Wunderground v.1.15,2013-05-18 10:36:00,
2013-05-18 06:42:00,64.5,56.0,30.18,North,360,6.0,6.0,74,0.00,,,0.00,Wunderground v.1.15,2013-05-18 10:42:00,
2013-05-18 06:44:00,64.4,55.9,30.18,North,360,6.0,10.0,74,0.00,,,0.00,Wunderground v.1.15,2013-05-18 10:44:00,
2013-05-18 06:46:00,64.1,55.6,30.18,North,360,6.0,10.0,74,0.00,,,0.00,Wunderground v.1.15,2013-05-18 10:46:00,
2013-05-18 06:50:00,63.9,55.8,30.18,North,360,7.0,7.0,75,0.00,,,0.00,Wunderground v.1.15,2013-05-18 10:50:00,
2013-05-18 06:52:00,64.0,56.3,30.18,North,360,6.0,9.0,76,0.00,,,0.00,Wunderground v.1.15,2013-05-18 10:52:00,
2013-05-18 06:54:00,64.2,56.1,30.18,North,360,7.0,9.0,75,0.00,,,0.00,Wunderground v.1.15,2013-05-18 10:54:00,
2013-05-18 06:58:00,64.4,56.3,30.18,North,360,6.0,9.0,75,0.00,,,0.00,Wunderground v.1.15,2013-05-18 10:58:00,
2013-05-18 07:00:00,64.4,56.3,30.18,North,360,6.0,8.0,75,0.00,,,0.00,Wunderground v.1.15,2013-05-18 11:00:00,
2013-05-18 07:02:00,64.5,56.4,30.18,North,360,6.0,8.0,75,0.00,,,0.00,Wunderground v.1.15,2013-05-18 11:02:00,
2013-05-18 07:04:00,64.6,56.5,30.18,North,360,5.0,8.0,75,0.00,,,0.00,Wunderground v.1.15,2013-05-18 11:04:00,
2013-05-18 07:06:00,64.6,56.1,30.19,North,360,6.0,8.0,74,0.00,,,0.00,Wunderground v.1.15,2013-05-18 11:06:00,
2013-05-18 07:12:00,64.4,56.3,30.19,North,360,6.0,6.0,75,0.00,,,0.00,Wunderground v.1.15,2013-05-18 11:12:00,
2013-05-18 07:14:00,64.5,56.4,30.19,North,360,6.0,10.0,75,0.00,,,0.00,Wunderground v.1.15,2013-05-18 11:14:00,
2013-05-18 07:20:00,64.4,56.3,30.19,North,360,6.0,6.0,75,0.00,,,0.00,Wunderground v.1.15,2013-05-18 11:20:00,
2013-05-18 07:24:00,64.6,56.5,30.19,North,360,6.0,6.0,75,0.00,,,0.00,Wunderground v.1.15,2013-05-18 11:24:00,
2013-05-18 07:26:00,64.6,56.5,30.19,North,360,5.0,6.0,75,0.00,,,0.00,Wunderground v.1.15,2013-05-18 11:26:00,
2013-05-18 07:32:00,64.7,56.6,30.19,North,360,7.0,12.0,75,0.00,,,0.00,Wunderground v.1.15,2013-05-18 11:32:00,
2013-05-18 07:34:00,64.4,56.3,30.19,North,360,7.0,12.0,75,0.00,,,0.00,Wunderground v.1.15,2013-05-18 11:34:00,
2013-05-18 07:36:00,64.4,56.3,30.19,North,360,7.0,12.0,75,0.00,,,0.00,Wunderground v.1.15,2013-05-18 11:36:00,
2013-05-18 07:38:00,64.3,56.2,30.19,North,360,7.0,12.0,75,0.00,,,0.00,Wunderground v.1.15,2013-05-18 11:38:00,
2013-05-18 07:42:00,64.4,56.3,30.19,North,360,6.0,6.0,75,0.00,,,0.00,Wunderground v.1.15,2013-05-18 11:42:00,
2013-05-18 07:44:00,64.6,56.9,30.19,North,360,5.0,6.0,76,0.00,,,0.00,Wunderground v.1.15,2013-05-18 11:44:00,
2013-05-18 07:46:00,64.6,56.5,30.19,North,360,6.0,11.0,75,0.00,,,0.00,Wunderground v.1.15,2013-05-18 11:46:00,
2013-05-18 07:50:00,64.5,56.8,30.19,North,360,8.0,8.0,76,0.00,,,0.00,Wunderground v.1.15,2013-05-18 11:50:00,
2013-05-18 07:52:00,64.5,56.8,30.19,North,360,7.0,8.0,76,0.00,,,0.00,Wunderground v.1.15,2013-05-18 11:52:00,
2013-05-18 07:54:00,64.7,57.0,30.19,North,360,7.0,8.0,76,0.00,,,0.00,Wunderground v.1.15,2013-05-18 11:54:00,
2013-05-18 07:58:00,64.9,57.2,30.19,North,360,5.0,8.0,76,0.00,,,0.00,Wunderground v.1.15,2013-05-18 11:58:00,
2013-05-18 08:00:00,65.0,57.2,30.19,North,360,5.0,9.0,76,0.00,,,0.00,Wunderground v.1.15,2013-05-18 12:00:00,
2013-05-18 08:02:00,64.9,57.2,30.19,North,360,6.0,9.0,76,0.00,,,0.00,Wunderground v.1.15,2013-05-18 12:02:00,
2013-05-18 08:04:00,64.7,57.0,30.19,North,360,7.0,9.0,76,0.00,,,0.00,Wunderground v.1.15,2013-05-18 12:04:00,
2013-05-18 08:08:00,64.7,57.0,30.19,North,360,6.0,9.0,76,0.00,,,0.00,Wunderground v.1.15,2013-05-18 12:08:00,
2013-05-18 08:10:00,64.8,57.4,30.20,North,360,6.0,6.0,77,0.00,,,0.00,Wunderground v.1.15,2013-05-18 12:10:00,
2013-05-18 08:14:00,64.9,57.2,30.20,North,360,4.0,6.0,76,0.00,,,0.00,Wunderground v.1.15,2013-05-18 12:14:00,
2013-05-18 08:16:00,65.0,57.2,30.20,North,360,4.0,6.0,76,0.00,,,0.00,Wunderground v.1.15,2013-05-18 12:16:00,
2013-05-18 08:18:00,65.0,57.2,30.20,North,360,4.0,6.0,76,0.00,,,0.00,Wunderground v.1.15,2013-05-18 12:18:00,
2013-05-18 08:20:00,65.1,57.3,30.20,North,360,4.0,6.0,76,0.00,,,0.00,Wunderground v.1.15,2013-05-18 12:20:00,
2013-05-18 08:22:00,65.0,57.2,30.20,North,360,4.0,6.0,76,0.00,,,0.00,Wunderground v.1.15,2013-05-18 12:22:00,
2013-05-18 08:24:00,65.0,57.2,30.20,North,360,5.0,6.0,76,0.00,,,0.00,Wunderground v.1.15,2013-05-18 12:24:00,
2013-05-18 08:26:00,65.0,57.2,30.20,North,360,5.0,6.0,76,0.00,,,0.00,Wunderground v.1.15,2013-05-18 12:26:00,
2013-05-18 08:30:00,65.2,57.1,30.21,North,360,6.0,11.0,75,0.00,,,0.00,Wunderground v.1.15,2013-05-18 12:30:00,
2013-05-18 08:32:00,64.9,56.8,30.21,North,360,6.0,11.0,75,0.00,,,0.00,Wunderground v.1.15,2013-05-18 12:32:00,
2013-05-18 08:34:00,64.8,57.1,30.21,North,360,6.0,11.0,76,0.00,,,0.00,Wunderground v.1.15,2013-05-18 12:34:00,
2013-05-18 08:38:00,64.9,56.8,30.21,North,360,7.0,12.0,75,0.00,,,0.00,Wunderground v.1.15,2013-05-18 12:38:00,
2013-05-18 08:40:00,64.8,56.7,30.20,North,360,7.0,7.0,75,0.00,,,0.00,Wunderground v.1.15,2013-05-18 12:40:00,
2013-05-18 08:42:00,64.8,56.7,30.21,North,360,6.0,7.0,75,0.00,,,0.00,Wunderground v.1.15,2013-05-18 12:42:00,
2013-05-18 08:44:00,64.8,56.7,30.21,North,360,6.0,7.0,75,0.00,,,0.00,Wunderground v.1.15,2013-05-18 12:44:00,
2013-05-18 08:46:00,64.8,56.7,30.21,North,360,6.0,7.0,75,0.00,,,0.00,Wunderground v.1.15,2013-05-18 12:46:00,
2013-05-18 08:52:00,65.0,56.5,30.21,North,360,5.0,7.0,74,0.00,,,0.00,Wunderground v.1.15,2013-05-18 12:52:00,
2013-05-18 08:58:00,64.8,55.9,30.21,North,360,7.0,11.0,73,0.00,,,0.00,Wunderground v.1.15,2013-05-18 12:58:00,
2013-05-18 09:02:00,64.8,56.3,30.21,North,360,8.0,8.0,74,0.00,,,0.00,Wunderground v.1.15,2013-05-18 13:02:00,
2013-05-18 09:04:00,64.8,56.3,30.21,North,360,8.0,8.0,74,0.00,,,0.00,Wunderground v.1.15,2013-05-18 13:04:00,
2013-05-18 09:06:00,64.8,56.3,30.21,North,360,7.0,9.0,74,0.00,,,0.00,Wunderground v.1.15,2013-05-18 13:06:00,
2013-05-18 09:12:00,65.0,56.1,30.21,North,360,7.0,10.0,73,0.00,,,0.00,Wunderground v.1.15,2013-05-18 13:12:00,
2013-05-18 09:14:00,65.1,55.8,30.21,North,360,6.0,10.0,72,0.00,,,0.00,Wunderground v.1.15,2013-05-18 13:14:00,
2013-05-18 09:16:00,65.1,55.8,30.21,North,360,8.0,13.0,72,0.00,,,0.00,Wunderground v.1.15,2013-05-18 13:16:00,
2013-05-18 09:18:00,65.1,56.2,30.21,North,360,8.0,13.0,73,0.00,,,0.00,Wunderground v.1.15,2013-05-18 13:18:00,
2013-05-18 09:20:00,65.2,56.3,30.21,North,360,7.0,11.0,73,0.00,,,0.00,Wunderground v.1.15,2013-05-18 13:20:00,
2013-05-18 09:22:00,65.2,56.3,30.21,North,360,7.0,11.0,73,0.00,,,0.00,Wunderground v.1.15,2013-05-18 13:22:00,
2013-05-18 09:24:00,65.3,56.0,30.21,North,360,7.0,11.0,72,0.00,,,0.00,Wunderground v.1.15,2013-05-18 13:24:00,
2013-05-18 09:26:00,65.3,56.0,30.21,North,360,6.0,11.0,72,0.00,,,0.00,Wunderground v.1.15,2013-05-18 13:26:00,
2013-05-18 09:28:00,65.3,56.0,30.21,North,360,6.0,11.0,72,0.00,,,0.00,Wunderground v.1.15,2013-05-18 13:28:00,
2013-05-18 09:32:00,65.2,55.6,30.22,North,360,7.0,12.0,71,0.00,,,0.00,Wunderground v.1.15,2013-05-18 13:32:00,
2013-05-18 09:34:00,65.2,55.9,30.21,North,360,8.0,12.0,72,0.00,,,0.00,Wunderground v.1.15,2013-05-18 13:34:00,
2013-05-18 09:36:00,65.3,56.0,30.21,North,360,7.0,12.0,72,0.00,,,0.00,Wunderground v.1.15,2013-05-18 13:36:00,
2013-05-18 09:42:00,65.4,55.7,30.21,North,360,6.0,6.0,71,0.00,,,0.00,Wunderground v.1.15,2013-05-18 13:42:00,
2013-05-18 09:44:00,65.4,55.7,30.21,North,360,6.0,6.0,71,0.00,,,0.00,Wunderground v.1.15,2013-05-18 13:44:00,
2013-05-18 09:48:00,65.4,55.7,30.21,North,360,7.0,14.0,71,0.00,,,0.00,Wunderground v.1.15,2013-05-18 13:48:00,
2013-05-18 09:50:00,65.4,55.7,30.21,North,360,8.0,8.0,71,0.00,,,0.00,Wunderground v.1.15,2013-05-18 13:50:00,
2013-05-18 09:54:00,65.4,55.7,30.21,North,360,8.0,10.0,71,0.00,,,0.00,Wunderground v.1.15,2013-05-18 13:54:00,
2013-05-18 09:56:00,65.4,55.4,30.21,North,360,8.0,10.0,70,0.00,,,0.00,Wunderground v.1.15,2013-05-18 13:56:00,
2013-05-18 09:58:00,65.4,55.7,30.21,North,360,7.0,10.0,71,0.00,,,0.00,Wunderground v.1.15,2013-05-18 13:58:00,
2013-05-18 10:00:00,65.4,55.7,30.21,North,360,7.0,7.0,71,0.00,,,0.00,Wunderground v.1.15,2013-05-18 14:00:00,
2013-05-18 10:02:00,65.4,55.7,30.21,North,360,6.0,11.0,71,0.00,,,0.00,Wunderground v.1.15,2013-05-18 14:02:00,
2013-05-18 10:04:00,65.4,55.4,30.21,North,360,6.0,11.0,70,0.00,,,0.00,Wunderground v.1.15,2013-05-18 14:04:00,
2013-05-18 10:08:00,65.4,55.7,30.22,North,360,6.0,11.0,71,0.00,,,0.00,Wunderground v.1.15,2013-05-18 14:08:00,
2013-05-18 10:10:00,65.4,55.7,30.22,North,360,5.0,7.0,71,0.00,,,0.00,Wunderground v.1.15,2013-05-18 14:10:00,
2013-05-18 10:12:00,65.4,55.7,30.21,North,360,6.0,7.0,71,0.00,,,0.00,Wunderground v.1.15,2013-05-18 14:12:00,
2013-05-18 10:14:00,65.4,55.7,30.21,North,360,6.0,7.0,71,0.00,,,0.00,Wunderground v.1.15,2013-05-18 14:14:00,
2013-05-18 10:16:00,65.5,55.8,30.21,North,360,6.0,9.0,71,0.00,,,0.00,Wunderground v.1.15,2013-05-18 14:16:00,
2013-05-18 10:20:00,65.6,55.9,30.21,North,360,6.0,7.0,71,0.00,,,0.00,Wunderground v.1.15,2013-05-18 14:20:00,
2013-05-18 10:22:00,65.5,55.8,30.21,North,360,6.0,10.0,71,0.00,,,0.00,Wunderground v.1.15,2013-05-18 14:22:00,
2013-05-18 10:24:00,65.4,55.7,30.21,North,360,7.0,10.0,71,0.00,,,0.00,Wunderground v.1.15,2013-05-18 14:24:00,
2013-05-18 10:26:00,65.4,56.1,30.21,North,360,7.0,10.0,72,0.00,,,0.00,Wunderground v.1.15,2013-05-18 14:26:00,
2013-05-18 10:28:00,65.5,55.8,30.21,North,360,7.0,10.0,71,0.00,,,0.00,Wunderground v.1.15,2013-05-18 14:28:00,
2013-05-18 10:30:00,65.6,55.9,30.22,North,360,6.0,7.0,71,0.00,,,0.00,Wunderground v.1.15,2013-05-18 14:30:00,
2013-05-18 10:36:00,65.5,55.8,30.22,North,360,5.0,7.0,71,0.00,,,0.00,Wunderground v.1.15,2013-05-18 14:36:00,
2013-05-18 10:38:00,65.5,56.2,30.22,North,360,5.0,7.0,72,0.00,,,0.00,Wunderground v.1.15,2013-05-18 14:38:00,
2013-05-18 10:40:00,65.5,55.8,30.22,North,360,5.0,5.0,71,0.00,,,0.00,Wunderground v.1.15,2013-05-18 14:40:00,
2013-05-18 10:44:00,65.6,55.9,30.22,North,360,6.0,6.0,71,0.00,,,0.00,Wunderground v.1.15,2013-05-18 14:44:00,
2013-05-18 10:46:00,65.6,55.9,30.22,North,360,6.0,6.0,71,0.00,,,0.00,Wunderground v.1.15,2013-05-18 14:46:00,
2013-05-18 10:50:00,65.5,54.7,30.22,North,360,7.0,7.0,68,0.00,,,0.00,Wunderground v.1.15,2013-05-18 14:50:00,
2013-05-18 10:54:00,65.3,54.1,30.22,North,360,9.0,14.0,67,0.00,,,0.00,Wunderground v.1.15,2013-05-18 14:54:00,
2013-05-18 10:56:00,65.2,54.4,30.22,North,360,10.0,14.0,68,0.00,,,0.00,Wunderground v.1.15,2013-05-18 14:56:00,
2013-05-18 10:58:00,65.1,54.3,30.22,North,360,10.0,14.0,68,0.00,,,0.00,Wunderground v.1.15,2013-05-18 14:58:00,
2013-05-18 11:04:00,65.0,54.2,30.22,North,360,11.0,13.0,68,0.00,,,0.00,Wunderground v.1.15,2013-05-18 15:04:00,
2013-05-18 11:06:00,65.0,54.6,30.22,North,360,10.0,13.0,69,0.00,,,0.00,Wunderground v.1.15,2013-05-18 15:06:00,
2013-05-18 11:12:00,65.0,54.6,30.22,North,360,8.0,8.0,69,0.00,,,0.00,Wunderground v.1.15,2013-05-18 15:12:00,
2013-05-18 11:14:00,65.1,54.7,30.22,North,360,7.0,8.0,69,0.00,,,0.00,Wunderground v.1.15,2013-05-18 15:14:00,
2013-05-18 11:16:00,65.2,54.8,30.22,North,360,6.0,11.0,69,0.00,,,0.00,Wunderground v.1.15,2013-05-18 15:16:00,
2013-05-18 11:18:00,65.2,54.8,30.22,North,360,7.0,11.0,69,0.00,,,0.00,Wunderground v.1.15,2013-05-18 15:18:00,
2013-05-18 11:24:00,65.3,54.9,30.22,North,360,6.0,6.0,69,0.00,,,0.00,Wunderground v.1.15,2013-05-18 15:24:00,
2013-05-18 11:28:00,65.2,54.8,30.22,North,360,5.0,6.0,69,0.00,,,0.00,Wunderground v.1.15,2013-05-18 15:28:00,
2013-05-18 11:30:00,65.2,55.2,30.22,North,360,5.0,5.0,70,0.00,,,0.00,Wunderground v.1.15,2013-05-18 15:30:00,
2013-05-18 11:32:00,65.2,55.2,30.22,North,360,5.0,5.0,70,0.00,,,0.00,Wunderground v.1.15,2013-05-18 15:32:00,
2013-05-18 11:34:00,65.0,55.4,30.23,North,360,5.0,6.0,71,0.00,,,0.00,Wunderground v.1.15,2013-05-18 15:34:00,
2013-05-18 11:36:00,64.8,55.6,30.23,North,360,5.0,6.0,72,0.00,,,0.00,Wunderground v.1.15,2013-05-18 15:36:00,
2013-05-18 11:38:00,64.7,55.5,30.23,North,360,5.0,6.0,72,0.00,,,0.00,Wunderground v.1.15,2013-05-18 15:38:00,
2013-05-18 11:42:00,64.2,55.4,30.23,North,360,5.0,5.0,73,0.00,,,0.00,Wunderground v.1.15,2013-05-18 15:42:00,
2013-05-18 11:44:00,63.9,55.4,30.23,North,360,5.0,5.0,74,0.00,,,0.00,Wunderground v.1.15,2013-05-18 15:44:00,
2013-05-18 11:46:00,63.6,55.5,30.23,North,360,4.0,5.0,75,0.00,,,0.00,Wunderground v.1.15,2013-05-18 15:46:00,
2013-05-18 11:52:00,63.0,55.7,30.23,North,360,3.0,6.0,77,0.00,,,0.00,Wunderground v.1.15,2013-05-18 15:52:00,
2013-05-18 11:54:00,62.9,55.9,30.23,North,360,3.0,6.0,78,0.00,,,0.00,Wunderground v.1.15,2013-05-18 15:54:00,
2013-05-18 11:58:00,62.6,56.0,30.23,North,360,3.0,6.0,79,0.00,,,0.00,Wunderground v.1.15,2013-05-18 15:58:00,
2013-05-18 12:02:00,62.1,56.2,30.23,North,360,4.0,4.0,81,0.00,,,0.00,Wunderground v.1.15,2013-05-18 16:02:00,
2013-05-18 12:08:00,61.4,56.2,30.22,North,360,5.0,13.0,83,0.00,,,0.01,Wunderground v.1.15,2013-05-18 16:08:00,
2013-05-18 12:12:00,61.1,56.2,30.22,North,360,5.0,7.0,84,0.00,,,0.01,Wunderground v.1.15,2013-05-18 16:12:00,
2013-05-18 12:14:00,60.9,56.4,30.22,North,360,5.0,7.0,85,0.00,,,0.01,Wunderground v.1.15,2013-05-18 16:14:00,
2013-05-18 12:20:00,60.8,56.6,30.22,North,360,5.0,6.0,86,0.00,,,0.01,Wunderground v.1.15,2013-05-18 16:20:00,
2013-05-18 12:22:00,60.6,56.1,30.22,North,360,5.0,7.0,85,0.00,,,0.01,Wunderground v.1.15,2013-05-18 16:22:00,
2013-05-18 12:24:00,60.5,56.3,30.22,North,360,5.0,7.0,86,0.00,,,0.01,Wunderground v.1.15,2013-05-18 16:24:00,
2013-05-18 12:26:00,60.4,56.2,30.22,North,360,5.0,7.0,86,0.00,,,0.01,Wunderground v.1.15,2013-05-18 16:26:00,
2013-05-18 12:28:00,60.4,56.5,30.22,North,360,5.0,7.0,87,0.00,,,0.01,Wunderground v.1.15,2013-05-18 16:28:00,
2013-05-18 12:30:00,60.3,56.4,30.21,North,360,5.0,5.0,87,0.00,,,0.01,Wunderground v.1.15,2013-05-18 16:30:00,
2013-05-18 12:32:00,60.3,56.4,30.22,North,360,5.0,7.0,87,0.00,,,0.01,Wunderground v.1.15,2013-05-18 16:32:00,
2013-05-18 12:34:00,60.3,56.4,30.21,North,360,5.0,7.0,87,0.00,,,0.01,Wunderground v.1.15,2013-05-18 16:34:00,
2013-05-18 12:40:00,60.3,56.4,30.21,North,360,6.0,7.0,87,0.00,,,0.01,Wunderground v.1.15,2013-05-18 16:40:00,
2013-05-18 12:42:00,60.3,56.7,30.21,North,360,6.0,7.0,88,0.00,,,0.01,Wunderground v.1.15,2013-05-18 16:42:00,
2013-05-18 12:44:00,60.3,56.7,30.21,North,360,5.0,7.0,88,0.00,,,0.01,Wunderground v.1.15,2013-05-18 16:44:00,
2013-05-18 12:46:00,60.5,56.9,30.21,North,360,5.0,9.0,88,0.00,,,0.01,Wunderground v.1.15,2013-05-18 16:46:00,
2013-05-18 12:50:00,60.6,56.7,30.21,North,360,5.0,5.0,87,0.00,,,0.01,Wunderground v.1.15,2013-05-18 16:50:00,
2013-05-18 12:52:00,60.6,56.7,30.21,North,360,5.0,5.0,87,0.00,,,0.01,Wunderground v.1.15,2013-05-18 16:52:00,
2013-05-18 12:54:00,60.7,57.1,30.21,North,360,5.0,5.0,88,0.00,,,0.01,Wunderground v.1.15,2013-05-18 16:54:00,
2013-05-18 12:56:00,60.8,56.9,30.21,North,360,5.0,6.0,87,0.00,,,0.01,Wunderground v.1.15,2013-05-18 16:56:00,
2013-05-18 13:00:00,60.9,57.0,30.21,North,360,5.0,7.0,87,0.00,,,0.01,Wunderground v.1.15,2013-05-18 17:00:00,
2013-05-18 13:02:00,60.9,56.7,30.21,North,360,6.0,7.0,86,0.00,,,0.01,Wunderground v.1.15,2013-05-18 17:02:00,
2013-05-18 13:04:00,61.0,57.1,30.21,North,360,6.0,7.0,87,0.00,,,0.01,Wunderground v.1.15,2013-05-18 17:04:00,
2013-05-18 13:08:00,61.0,56.8,30.21,North,360,7.0,8.0,86,0.00,,,0.01,Wunderground v.1.15,2013-05-18 17:08:00,
2013-05-18 13:10:00,61.1,57.2,30.21,North,360,6.0,6.0,87,0.00,,,0.01,Wunderground v.1.15,2013-05-18 17:10:00,
2013-05-18 13:14:00,61.4,57.5,30.21,North,360,6.0,11.0,87,0.00,,,0.01,Wunderground v.1.15,2013-05-18 17:14:00,
2013-05-18 13:18:00,61.7,57.5,30.21,North,360,5.0,11.0,86,0.00,,,0.01,Wunderground v.1.15,2013-05-18 17:18:00,
2013-05-18 13:20:00,61.7,57.5,30.21,North,360,5.0,5.0,86,0.00,,,0.01,Wunderground v.1.15,2013-05-18 17:20:00,
2013-05-18 13:22:00,61.7,57.1,30.21,North,360,6.0,6.0,85,0.00,,,0.01,Wunderground v.1.15,2013-05-18 17:22:00,
2013-05-18 13:24:00,61.8,57.2,30.21,North,360,6.0,7.0,85,0.00,,,0.01,Wunderground v.1.15,2013-05-18 17:24:00,
2013-05-18 13:30:00,62.4,57.8,30.21,North,360,5.0,6.0,85,0.00,,,0.01,Wunderground v.1.15,2013-05-18 17:30:00,
2013-05-18 13:36:00,62.1,57.5,30.21,North,360,5.0,7.0,85,0.00,,,0.01,Wunderground v.1.15,2013-05-18 17:36:00,
2013-05-18 13:38:00,62.0,57.4,30.21,North,360,5.0,7.0,85,0.00,,,0.01,Wunderground v.1.15,2013-05-18 17:38:00,
2013-05-18 13:42:00,62.1,57.5,30.21,North,360,4.0,5.0,85,0.00,,,0.01,Wunderground v.1.15,2013-05-18 17:42:00,
2013-05-18 13:44:00,62.1,57.5,30.21,North,360,5.0,5.0,85,0.00,,,0.01,Wunderground v.1.15,2013-05-18 17:44:00,
2013-05-18 13:48:00,62.3,58.1,30.21,North,360,4.0,5.0,86,0.00,,,0.01,Wunderground v.1.15,2013-05-18 17:48:00,
2013-05-18 13:50:00,62.5,57.9,30.21,North,360,5.0,6.0,85,0.00,,,0.01,Wunderground v.1.15,2013-05-18 17:50:00,
2013-05-18 13:54:00,62.4,57.8,30.21,North,360,5.0,7.0,85,0.00,,,0.01,Wunderground v.1.15,2013-05-18 17:54:00,
2013-05-18 13:56:00,62.1,57.2,30.21,North,360,6.0,7.0,84,0.00,,,0.01,Wunderground v.1.15,2013-05-18 17:56:00,
2013-05-18 13:58:00,62.0,57.4,30.21,North,360,6.0,7.0,85,0.00,,,0.01,Wunderground v.1.15,2013-05-18 17:58:00,
2013-05-18 14:00:00,61.8,57.2,30.21,North,360,7.0,7.0,85,0.00,,,0.01,Wunderground v.1.15,2013-05-18 18:00:00,
2013-05-18 14:02:00,61.7,57.5,30.21,North,360,7.0,7.0,86,0.00,,,0.01,Wunderground v.1.15,2013-05-18 18:02:00,
2013-05-18 14:06:00,61.6,57.4,30.21,North,360,6.0,7.0,86,0.00,,,0.01,Wunderground v.1.15,2013-05-18 18:06:00,
2013-05-18 14:08:00,61.6,57.4,30.21,North,360,6.0,7.0,86,0.00,,,0.01,Wunderground v.1.15,2013-05-18 18:08:00,
2013-05-18 14:10:00,61.7,57.8,30.21,North,360,6.0,10.0,87,0.00,,,0.01,Wunderground v.1.15,2013-05-18 18:10:00,
2013-05-18 14:14:00,61.7,57.8,30.21,North,360,7.0,11.0,87,0.00,,,0.01,Wunderground v.1.15,2013-05-18 18:14:00,
2013-05-18 14:16:00,61.7,57.5,30.21,North,360,7.0,11.0,86,0.00,,,0.01,Wunderground v.1.15,2013-05-18 18:16:00,
2013-05-18 14:18:00,61.6,57.4,30.21,North,360,8.0,11.0,86,0.00,,,0.01,Wunderground v.1.15,2013-05-18 18:18:00,
2013-05-18 14:20:00,61.6,57.7,30.20,North,360,9.0,10.0,87,0.00,,,0.01,Wunderground v.1.15,2013-05-18 18:20:00,
2013-05-18 14:26:00,61.5,57.6,30.20,North,360,9.0,10.0,87,0.00,,,0.01,Wunderground v.1.15,2013-05-18 18:26:00,
2013-05-18 14:28:00,61.6,58.0,30.20,North,360,8.0,10.0,88,0.00,,,0.01,Wunderground v.1.15,2013-05-18 18:28:00,
2013-05-18 14:30:00,61.7,57.8,30.20,North,360,8.0,9.0,87,0.00,,,0.01,Wunderground v.1.15,2013-05-18 18:30:00,
2013-05-18 14:32:00,61.7,57.8,30.20,North,360,8.0,9.0,87,0.00,,,0.01,Wunderground v.1.15,2013-05-18 18:32:00,
2013-05-18 14:34:00,61.8,57.9,30.20,North,360,7.0,9.0,87,0.00,,,0.01,Wunderground v.1.15,2013-05-18 18:34:00,
2013-05-18 14:36:00,61.9,58.3,30.20,North,360,7.0,9.0,88,0.00,,,0.01,Wunderground v.1.15,2013-05-18 18:36:00,
2013-05-18 14:40:00,61.9,58.0,30.19,North,360,7.0,7.0,87,0.00,,,0.01,Wunderground v.1.15,2013-05-18 18:40:00,
2013-05-18 14:42:00,61.9,58.0,30.19,North,360,7.0,7.0,87,0.00,,,0.01,Wunderground v.1.15,2013-05-18 18:42:00,
2013-05-18 14:46:00,61.8,57.9,30.19,North,360,8.0,12.0,87,0.00,,,0.01,Wunderground v.1.15,2013-05-18 18:46:00,
2013-05-18 14:48:00,61.8,58.2,30.19,North,360,8.0,12.0,88,0.00,,,0.01,Wunderground v.1.15,2013-05-18 18:48:00,
2013-05-18 14:50:00,61.8,58.2,30.19,North,360,8.0,9.0,88,0.00,,,0.01,Wunderground v.1.15,2013-05-18 18:50:00,
2013-05-18 14:52:00,61.8,58.2,30.19,North,360,8.0,9.0,88,0.00,,,0.01,Wunderground v.1.15,2013-05-18 18:52:00,
2013-05-18 14:54:00,61.9,58.6,30.19,North,360,8.0,11.0,89,0.00,,,0.01,Wunderground v.1.15,2013-05-18 18:54:00,
2013-05-18 14:58:00,62.0,58.4,30.19,North,360,7.0,11.0,88,0.00,,,0.01,Wunderground v.1.15,2013-05-18 18:58:00,
2013-05-18 15:00:00,61.8,57.9,30.19,North,360,7.0,9.0,87,0.00,,,0.01,Wunderground v.1.15,2013-05-18 19:00:00,
2013-05-18 15:02:00,61.8,58.2,30.19,North,360,7.0,9.0,88,0.00,,,0.01,Wunderground v.1.15,2013-05-18 19:02:00,
2013-05-18 15:06:00,61.7,58.1,30.19,North,360,7.0,12.0,88,0.00,,,0.01,Wunderground v.1.15,2013-05-18 19:06:00,
2013-05-18 15:12:00,61.8,58.2,30.19,North,360,7.0,9.0,88,0.00,,,0.01,Wunderground v.1.15,2013-05-18 19:12:00,
2013-05-18 15:14:00,61.7,58.1,30.19,North,360,7.0,9.0,88,0.00,,,0.01,Wunderground v.1.15,2013-05-18 19:14:00,
2013-05-18 15:18:00,61.9,58.3,30.19,North,360,6.0,9.0,88,0.00,,,0.01,Wunderground v.1.15,2013-05-18 19:18:00,
2013-05-18 15:22:00,61.9,58.3,30.18,North,360,5.0,6.0,88,0.00,,,0.01,Wunderground v.1.15,2013-05-18 19:22:00,
2013-05-18 15:24:00,61.9,58.0,30.18,North,360,6.0,7.0,87,0.00,,,0.01,Wunderground v.1.15,2013-05-18 19:24:00,
2013-05-18 15:30:00,62.2,58.3,30.19,North,360,6.0,6.0,87,0.00,,,0.01,Wunderground v.1.15,2013-05-18 19:30:00,
2013-05-18 15:32:00,62.2,58.3,30.18,North,360,6.0,7.0,87,0.00,,,0.01,Wunderground v.1.15,2013-05-18 19:32:00,
2013-05-18 15:34:00,62.3,58.4,30.18,North,360,6.0,9.0,87,0.00,,,0.01,Wunderground v.1.15,2013-05-18 19:34:00,
2013-05-18 15:36:00,62.3,58.4,30.18,North,360,6.0,9.0,87,0.00,,,0.01,Wunderground v.1.15,2013-05-18 19:36:00,
2013-05-18 15:38:00,62.3,58.1,30.18,North,360,6.0,9.0,86,0.00,,,0.01,Wunderground v.1.15,2013-05-18 19:38:00,
2013-05-18 15:40:00,62.2,58.0,30.18,North,360,7.0,7.0,86,0.00,,,0.01,Wunderground v.1.15,2013-05-18 19:40:00,
2013-05-18 15:42:00,62.1,57.9,30.18,North,360,7.0,7.0,86,0.00,,,0.01,Wunderground v.1.15,2013-05-18 19:42:00,
2013-05-18 15:48:00,62.0,58.1,30.18,North,360,8.0,8.0,87,0.00,,,0.01,Wunderground v.1.15,2013-05-18 19:48:00,
2013-05-18 15:50:00,62.1,58.2,30.18,North,360,8.0,9.0,87,0.00,,,0.01,Wunderground v.1.15,2013-05-18 19:50:00,
2013-05-18 15:52:00,62.0,58.1,30.18,North,360,8.0,10.0,87,0.00,,,0.01,Wunderground v.1.15,2013-05-18 19:52:00,
2013-05-18 15:56:00,62.0,58.1,30.19,North,360,8.0,10.0,87,0.00,,,0.01,Wunderground v.1.15,2013-05-18 19:56:00,
2013-05-18 15:58:00,61.9,58.0,30.18,North,360,8.0,10.0,87,0.00,,,0.01,Wunderground v.1.15,2013-05-18 19:58:00,
2013-05-18 16:00:00,62.0,58.1,30.18,North,360,8.0,11.0,87,0.00,,,0.01,Wunderground v.1.15,2013-05-18 20:00:00,
2013-05-18 16:02:00,62.0,58.1,30.18,North,360,8.0,11.0,87,0.00,,,0.01,Wunderground v.1.15,2013-05-18 20:02:00,
2013-05-18 16:04:00,62.2,58.3,30.18,North,360,8.0,11.0,87,0.00,,,0.01,Wunderground v.1.15,2013-05-18 20:04:00,
2013-05-18 16:08:00,62.3,58.1,30.18,North,360,8.0,11.0,86,0.00,,,0.01,Wunderground v.1.15,2013-05-18 20:08:00,
2013-05-18 16:10:00,62.3,58.1,30.18,North,360,8.0,8.0,86,0.00,,,0.01,Wunderground v.1.15,2013-05-18 20:10:00,
2013-05-18 16:14:00,62.5,58.3,30.18,North,360,7.0,8.0,86,0.00,,,0.01,Wunderground v.1.15,2013-05-18 20:14:00,
2013-05-18 16:16:00,62.5,58.3,30.18,North,360,6.0,8.0,86,0.00,,,0.01,Wunderground v.1.15,2013-05-18 20:16:00,
2013-05-18 16:20:00,62.5,58.3,30.18,North,360,6.0,9.0,86,0.00,,,0.01,Wunderground v.1.15,2013-05-18 20:20:00,
2013-05-18 16:22:00,62.5,57.9,30.18,North,360,7.0,9.0,85,0.00,,,0.01,Wunderground v.1.15,2013-05-18 20:22:00,
2013-05-18 16:24:00,62.4,58.2,30.18,North,360,7.0,9.0,86,0.00,,,0.01,Wunderground v.1.15,2013-05-18 20:24:00,
2013-05-18 16:26:00,62.4,58.2,30.18,North,360,7.0,9.0,86,0.00,,,0.01,Wunderground v.1.15,2013-05-18 20:26:00,
2013-05-18 16:28:00,62.5,58.3,30.18,North,360,7.0,9.0,86,0.00,,,0.01,Wunderground v.1.15,2013-05-18 20:28:00,
2013-05-18 16:30:00,62.5,58.3,30.18,North,360,7.0,7.0,86,0.00,,,0.01,Wunderground v.1.15,2013-05-18 20:30:00,
2013-05-18 16:36:00,62.6,58.0,30.18,North,360,7.0,7.0,85,0.00,,,0.01,Wunderground v.1.15,2013-05-18 20:36:00,
2013-05-18 16:40:00,62.9,58.3,30.18,North,360,7.0,9.0,85,0.00,,,0.01,Wunderground v.1.15,2013-05-18 20:40:00,
2013-05-18 16:42:00,62.8,57.9,30.18,North,360,7.0,9.0,84,0.00,,,0.01,Wunderground v.1.15,2013-05-18 20:42:00,
2013-05-18 16:46:00,63.0,58.1,30.18,North,360,6.0,10.0,84,0.00,,,0.01,Wunderground v.1.15,2013-05-18 20:46:00,
2013-05-18 16:48:00,63.0,58.1,30.18,North,360,7.0,10.0,84,0.00,,,0.01,Wunderground v.1.15,2013-05-18 20:48:00,
2013-05-18 16:50:00,63.0,58.1,30.18,North,360,6.0,6.0,84,0.00,,,0.01,Wunderground v.1.15,2013-05-18 20:50:00,
2013-05-18 16:52:00,63.1,58.2,30.18,North,360,7.0,11.0,84,0.00,,,0.01,Wunderground v.1.15,2013-05-18 20:52:00,
2013-05-18 16:56:00,63.1,58.2,30.18,North,360,7.0,11.0,84,0.00,,,0.01,Wunderground v.1.15,2013-05-18 20:56:00,
2013-05-18 16:58:00,63.1,58.2,30.18,North,360,6.0,11.0,84,0.00,,,0.01,Wunderground v.1.15,2013-05-18 20:58:00,
2013-05-18 17:00:00,63.2,57.9,30.18,North,360,7.0,7.0,83,0.00,,,0.01,Wunderground v.1.15,2013-05-18 21:00:00,
2013-05-18 17:04:00,63.5,58.2,30.18,North,360,6.0,10.0,83,0.00,,,0.01,Wunderground v.1.15,2013-05-18 21:04:00,
2013-05-18 17:06:00,63.3,58.0,30.18,North,360,6.0,10.0,83,0.00,,,0.01,Wunderground v.1.15,2013-05-18 21:06:00,
2013-05-18 17:08:00,63.2,57.9,30.18,North,360,7.0,10.0,83,0.00,,,0.01,Wunderground v.1.15,2013-05-18 21:08:00,
2013-05-18 17:10:00,63.1,57.9,30.18,North,360,7.0,9.0,83,0.00,,,0.01,Wunderground v.1.15,2013-05-18 21:10:00,
2013-05-18 17:12:00,63.1,58.2,30.18,North,360,7.0,9.0,84,0.00,,,0.01,Wunderground v.1.15,2013-05-18 21:12:00,
2013-05-18 17:16:00,62.9,57.7,30.18,North,360,8.0,12.0,83,0.00,,,0.01,Wunderground v.1.15,2013-05-18 21:16:00,
2013-05-18 17:18:00,62.8,57.6,30.18,North,360,9.0,12.0,83,0.00,,,0.01,Wunderground v.1.15,2013-05-18 21:18:00,
2013-05-18 17:20:00,62.8,57.9,30.18,North,360,8.0,8.0,84,0.00,,,0.01,Wunderground v.1.15,2013-05-18 21:20:00,
2013-05-18 17:22:00,62.9,58.0,30.18,North,360,8.0,8.0,84,0.00,,,0.01,Wunderground v.1.15,2013-05-18 21:22:00,
2013-05-18 17:24:00,62.9,57.7,30.18,North,360,8.0,12.0,83,0.00,,,0.01,Wunderground v.1.15,2013-05-18 21:24:00,
2013-05-18 17:30:00,62.8,57.6,30.18,North,360,7.0,9.0,83,0.00,,,0.01,Wunderground v.1.15,2013-05-18 21:30:00,
2013-05-18 17:34:00,62.7,57.5,30.18,North,360,8.0,11.0,83,0.00,,,0.01,Wunderground v.1.15,2013-05-18 21:34:00,
2013-05-18 17:36:00,62.6,57.4,30.18,North,360,8.0,11.0,83,0.00,,,0.01,Wunderground v.1.15,2013-05-18 21:36:00,
2013-05-18 17:40:00,62.1,57.2,30.19,North,360,9.0,9.0,84,0.00,,,0.01,Wunderground v.1.15,2013-05-18 21:40:00,
2013-05-18 17:44:00,62.0,57.4,30.18,North,360,9.0,12.0,85,0.00,,,0.01,Wunderground v.1.15,2013-05-18 21:44:00,
2013-05-18 17:48:00,62.0,57.1,30.18,North,360,10.0,12.0,84,0.00,,,0.01,Wunderground v.1.15,2013-05-18 21:48:00,
2013-05-18 17:52:00,61.9,57.3,30.18,North,360,9.0,10.0,85,0.00,,,0.01,Wunderground v.1.15,2013-05-18 21:52:00,
2013-05-18 17:56:00,62.3,57.7,30.18,North,360,7.0,10.0,85,0.00,,,0.01,Wunderground v.1.15,2013-05-18 21:56:00,
2013-05-18 17:58:00,62.5,57.6,30.18,North,360,6.0,10.0,84,0.00,,,0.01,Wunderground v.1.15,2013-05-18 21:58:00,
2013-05-18 18:02:00,62.7,57.8,30.19,North,360,5.0,8.0,84,0.00,,,0.01,Wunderground v.1.15,2013-05-18 22:02:00,
2013-05-18 18:04:00,62.9,58.0,30.19,North,360,6.0,8.0,84,0.00,,,0.01,Wunderground v.1.15,2013-05-18 22:04:00,
2013-05-18 18:06:00,63.0,57.8,30.19,North,360,6.0,11.0,83,0.00,,,0.01,Wunderground v.1.15,2013-05-18 22:06:00,
2013-05-18 18:08:00,62.9,57.7,30.19,North,360,6.0,11.0,83,0.00,,,0.01,Wunderground v.1.15,2013-05-18 22:08:00,
2013-05-18 18:12:00,62.8,57.6,30.19,North,360,6.0,6.0,83,0.00,,,0.01,Wunderground v.1.15,2013-05-18 22:12:00,
2013-05-18 18:14:00,62.9,57.7,30.19,North,360,6.0,8.0,83,0.00,,,0.01,Wunderground v.1.15,2013-05-18 22:14:00,
2013-05-18 18:20:00,62.7,57.5,30.19,North,360,6.0,10.0,83,0.00,,,0.01,Wunderground v.1.15,2013-05-18 22:20:00,
2013-05-18 18:22:00,62.5,57.3,30.19,North,360,7.0,10.0,83,0.00,,,0.01,Wunderground v.1.15,2013-05-18 22:22:00,
2013-05-18 18:24:00,62.5,57.6,30.19,North,360,7.0,10.0,84,0.00,,,0.01,Wunderground v.1.15,2013-05-18 22:24:00,
2013-05-18 18:26:00,62.5,57.6,30.19,North,360,6.0,10.0,84,0.00,,,0.01,Wunderground v.1.15,2013-05-18 22:26:00,
2013-05-18 18:28:00,62.6,57.7,30.19,North,360,6.0,10.0,84,0.00,,,0.01,Wunderground v.1.15,2013-05-18 22:28:00,
2013-05-18 18:32:00,62.5,57.6,30.19,North,360,6.0,6.0,84,0.00,,,0.01,Wunderground v.1.15,2013-05-18 22:32:00,
2013-05-18 18:34:00,62.6,57.7,30.19,North,360,6.0,7.0,84,0.00,,,0.01,Wunderground v.1.15,2013-05-18 22:34:00,
2013-05-18 18:36:00,62.6,57.4,30.19,North,360,7.0,12.0,83,0.00,,,0.01,Wunderground v.1.15,2013-05-18 22:36:00,
2013-05-18 18:38:00,62.3,57.1,30.19,North,360,8.0,12.0,83,0.00,,,0.01,Wunderground v.1.15,2013-05-18 22:38:00,
2013-05-18 18:42:00,62.1,57.2,30.19,North,360,7.0,7.0,84,0.00,,,0.01,Wunderground v.1.15,2013-05-18 22:42:00,
2013-05-18 18:44:00,62.1,57.5,30.19,North,360,7.0,7.0,85,0.00,,,0.01,Wunderground v.1.15,2013-05-18 22:44:00,
2013-05-18 18:46:00,62.1,57.5,30.18,North,360,7.0,11.0,85,0.00,,,0.01,Wunderground v.1.15,2013-05-18 22:46:00,
2013-05-18 18:48:00,62.2,57.6,30.18,North,360,7.0,11.0,85,0.00,,,0.01,Wunderground v.1.15,2013-05-18 22:48:00,
2013-05-18 18:50:00,62.2,57.3,30.18,North,360,7.0,7.0,84,0.00,,,0.01,Wunderground v.1.15,2013-05-18 22:50:00,
2013-05-18 18:52:00,62.2,57.6,30.19,North,360,7.0,7.0,85,0.00,,,0.01,Wunderground v.1.15,2013-05-18 22:52:00,
2013-05-18 18:56:00,62.5,57.9,30.19,North,360,7.0,8.0,85,0.00,,,0.01,Wunderground v.1.15,2013-05-18 22:56:00,
2013-05-18 18:58:00,62.4,57.5,30.19,North,360,7.0,11.0,84,0.00,,,0.01,Wunderground v.1.15,2013-05-18 22:58:00,
2013-05-18 19:02:00,62.3,57.7,30.19,North,360,7.0,7.0,85,0.00,,,0.01,Wunderground v.1.15,2013-05-18 23:02:00,
2013-05-18 19:04:00,62.3,57.7,30.19,North,360,6.0,7.0,85,0.00,,,0.01,Wunderground v.1.15,2013-05-18 23:04:00,
2013-05-18 19:08:00,62.2,57.3,30.19,North,360,7.0,9.0,84,0.00,,,0.01,Wunderground v.1.15,2013-05-18 23:08:00,
2013-05-18 19:10:00,62.1,57.5,30.19,North,360,6.0,6.0,85,0.00,,,0.01,Wunderground v.1.15,2013-05-18 23:10:00,
2013-05-18 19:16:00,62.2,57.6,30.19,North,360,8.0,11.0,85,0.00,,,0.01,Wunderground v.1.15,2013-05-18 23:16:00,
2013-05-18 19:20:00,62.5,57.9,30.19,North,360,7.0,7.0,85,0.00,,,0.01,Wunderground v.1.15,2013-05-18 23:20:00,
2013-05-18 19:26:00,62.5,57.9,30.19,North,360,7.0,13.0,85,0.00,,,0.01,Wunderground v.1.15,2013-05-18 23:26:00,
2013-05-18 19:28:00,62.5,57.9,30.19,North,360,7.0,13.0,85,0.00,,,0.01,Wunderground v.1.15,2013-05-18 23:28:00,
2013-05-18 19:30:00,62.5,57.9,30.20,North,360,6.0,6.0,85,0.00,,,0.01,Wunderground v.1.15,2013-05-18 23:30:00,
2013-05-18 19:32:00,62.5,57.9,30.20,North,360,7.0,7.0,85,0.00,,,0.01,Wunderground v.1.15,2013-05-18 23:32:00,
2013-05-18 19:36:00,62.3,57.7,30.20,North,360,6.0,7.0,85,0.00,,,0.01,Wunderground v.1.15,2013-05-18 23:36:00,
2013-05-18 19:38:00,62.2,57.6,30.20,North,360,6.0,7.0,85,0.00,,,0.01,Wunderground v.1.15,2013-05-18 23:38:00,
2013-05-18 19:40:00,62.1,57.5,30.19,North,360,6.0,6.0,85,0.00,,,0.01,Wunderground v.1.15,2013-05-18 23:40:00,
2013-05-18 19:44:00,62.2,57.6,30.19,North,360,6.0,6.0,85,0.00,,,0.01,Wunderground v.1.15,2013-05-18 23:44:00,
2013-05-18 19:46:00,62.3,57.7,30.20,North,360,6.0,10.0,85,0.00,,,0.01,Wunderground v.1.15,2013-05-18 23:46:00,
2013-05-18 19:50:00,62.4,57.8,30.20,North,360,6.0,6.0,85,0.00,,,0.01,Wunderground v.1.15,2013-05-18 23:50:00,
2013-05-18 19:52:00,62.5,57.9,30.20,North,360,6.0,6.0,85,0.00,,,0.01,Wunderground v.1.15,2013-05-18 23:52:00,
2013-05-18 19:54:00,62.5,57.9,30.20,North,360,6.0,6.0,85,0.00,,,0.01,Wunderground v.1.15,2013-05-18 23:54:00,
2013-05-18 19:56:00,62.5,57.9,30.20,North,360,7.0,7.0,85,0.00,,,0.01,Wunderground v.1.15,2013-05-18 23:56:00,
2013-05-18 20:00:00,62.6,58.0,30.20,North,360,6.0,6.0,85,0.00,,,0.01,Wunderground v.1.15,2013-05-19 00:00:00,
2013-05-18 20:02:00,62.6,58.0,30.20,North,360,7.0,10.0,85,0.00,,,0.01,Wunderground v.1.15,2013-05-19 00:02:00,
2013-05-18 20:06:00,62.5,57.9,30.20,North,360,7.0,11.0,85,0.00,,,0.01,Wunderground v.1.15,2013-05-19 00:06:00,
2013-05-18 20:08:00,62.4,57.8,30.20,North,360,7.0,11.0,85,0.00,,,0.01,Wunderground v.1.15,2013-05-19 00:08:00,
2013-05-18 20:10:00,62.3,57.7,30.20,North,360,7.0,7.0,85,0.00,,,0.01,Wunderground v.1.15,2013-05-19 00:10:00,
2013-05-18 20:16:00,62.3,57.7,30.20,North,360,7.0,7.0,85,0.00,,,0.01,Wunderground v.1.15,2013-05-19 00:16:00,
2013-05-18 20:18:00,62.3,57.7,30.20,North,360,7.0,9.0,85,0.00,,,0.01,Wunderground v.1.15,2013-05-19 00:18:00,
2013-05-18 20:20:00,62.2,57.6,30.20,North,360,7.0,7.0,85,0.00,,,0.01,Wunderground v.1.15,2013-05-19 00:20:00,
2013-05-18 20:22:00,62.2,57.6,30.20,North,360,7.0,7.0,85,0.00,,,0.01,Wunderground v.1.15,2013-05-19 00:22:00,
2013-05-18 20:24:00,62.2,57.6,30.20,North,360,7.0,7.0,85,0.00,,,0.01,Wunderground v.1.15,2013-05-19 00:24:00,
2013-05-18 20:26:00,62.1,57.5,30.20,North,360,7.0,10.0,85,0.00,,,0.01,Wunderground v.1.15,2013-05-19 00:26:00,
2013-05-18 20:28:00,62.0,57.4,30.20,North,360,7.0,10.0,85,0.00,,,0.01,Wunderground v.1.15,2013-05-19 00:28:00,
2013-05-18 20:34:00,61.9,57.3,30.20,North,360,7.0,10.0,85,0.00,,,0.01,Wunderground v.1.15,2013-05-19 00:34:00,
2013-05-18 20:36:00,61.8,57.2,30.20,North,360,6.0,10.0,85,0.00,,,0.01,Wunderground v.1.15,2013-05-19 00:36:00,
2013-05-18 20:38:00,61.7,57.5,30.20,North,360,6.0,10.0,86,0.00,,,0.01,Wunderground v.1.15,2013-05-19 00:38:00,
2013-05-18 20:42:00,62.0,57.8,30.20,North,360,6.0,6.0,86,0.00,,,0.01,Wunderground v.1.15,2013-05-19 00:42:00,
2013-05-18 20:44:00,62.2,58.0,30.19,North,360,6.0,6.0,86,0.00,,,0.01,Wunderground v.1.15,2013-05-19 00:44:00,
2013-05-18 20:50:00,61.9,57.7,30.20,North,360,6.0,6.0,86,0.00,,,0.01,Wunderground v.1.15,2013-05-19 00:50:00,
2013-05-18 20:52:00,61.9,57.3,30.20,North,360,7.0,9.0,85,0.00,,,0.01,Wunderground v.1.15,2013-05-19 00:52:00,
2013-05-18 20:56:00,61.8,57.6,30.20,North,360,8.0,9.0,86,0.00,,,0.01,Wunderground v.1.15,2013-05-19 00:56:00,
2013-05-18 20:58:00,61.8,57.6,30.20,North,360,7.0,9.0,86,0.00,,,0.01,Wunderground v.1.15,2013-05-19 00:58:00,
2013-05-18 21:02:00,61.9,57.7,30.20,North,360,6.0,7.0,86,0.00,,,0.01,Wunderground v.1.15,2013-05-19 01:02:00,
2013-05-18 21:04:00,62.0,57.4,30.20,North,360,6.0,7.0,85,0.00,,,0.01,Wunderground v.1.15,2013-05-19 01:04:00,
2013-05-18 21:06:00,62.0,57.4,30.20,North,360,5.0,7.0,85,0.00,,,0.01,Wunderground v.1.15,2013-05-19 01:06:00,
2013-05-18 21:08:00,62.1,57.5,30.20,North,360,5.0,7.0,85,0.00,,,0.01,Wunderground v.1.15,2013-05-19 01:08:00,
2013-05-18 21:14:00,62.0,57.4,30.20,North,360,5.0,9.0,85,0.00,,,0.01,Wunderground v.1.15,2013-05-19 01:14:00,
2013-05-18 21:20:00,61.9,57.3,30.20,North,360,6.0,9.0,85,0.00,,,0.01,Wunderground v.1.15,2013-05-19 01:20:00,
2013-05-18 21:22:00,61.7,57.1,30.20,North,360,6.0,9.0,85,0.00,,,0.01,Wunderground v.1.15,2013-05-19 01:22:00,
2013-05-18 21:26:00,61.3,57.1,30.21,North,360,7.0,9.0,86,0.00,,,0.01,Wunderground v.1.15,2013-05-19 01:26:00,
2013-05-18 21:30:00,61.4,57.5,30.21,North,360,6.0,11.0,87,0.00,,,0.01,Wunderground v.1.15,2013-05-19 01:30:00,
2013-05-18 21:32:00,61.5,57.3,30.21,North,360,6.0,11.0,86,0.00,,,0.01,Wunderground v.1.15,2013-05-19 01:32:00,
2013-05-18 21:34:00,61.7,57.5,30.21,North,360,6.0,11.0,86,0.00,,,0.01,Wunderground v.1.15,2013-05-19 01:34:00,
2013-05-18 21:40:00,62.0,57.4,30.21,North,360,6.0,6.0,85,0.00,,,0.01,Wunderground v.1.15,2013-05-19 01:40:00,
2013-05-18 21:42:00,62.0,57.4,30.21,North,360,5.0,6.0,85,0.00,,,0.01,Wunderground v.1.15,2013-05-19 01:42:00,
2013-05-18 21:44:00,61.9,57.3,30.21,North,360,5.0,6.0,85,0.00,,,0.01,Wunderground v.1.15,2013-05-19 01:44:00,
2013-05-18 21:48:00,62.0,57.8,30.21,North,360,5.0,7.0,86,0.00,,,0.01,Wunderground v.1.15,2013-05-19 01:48:00,
2013-05-18 21:52:00,61.8,57.6,30.21,North,360,6.0,6.0,86,0.00,,,0.01,Wunderground v.1.15,2013-05-19 01:52:00,
2013-05-18 21:58:00,61.3,57.4,30.21,North,360,8.0,13.0,87,0.00,,,0.01,Wunderground v.1.15,2013-05-19 01:58:00,
2013-05-18 22:00:00,61.1,57.2,30.21,North,360,9.0,9.0,87,0.00,,,0.01,Wunderground v.1.15,2013-05-19 02:00:00,
2013-05-18 22:02:00,61.0,57.1,30.21,North,360,8.0,9.0,87,0.00,,,0.01,Wunderground v.1.15,2013-05-19 02:02:00,
2013-05-18 22:04:00,60.8,56.9,30.21,North,360,8.0,9.0,87,0.00,,,0.01,Wunderground v.1.15,2013-05-19 02:04:00,
2013-05-18 22:06:00,60.8,57.2,30.21,North,360,8.0,9.0,88,0.00,,,0.01,Wunderground v.1.15,2013-05-19 02:06:00,
2013-05-18 22:10:00,60.8,57.2,30.20,North,360,7.0,7.0,88,0.00,,,0.01,Wunderground v.1.15,2013-05-19 02:10:00,
2013-05-18 22:12:00,60.9,57.3,30.20,North,360,6.0,7.0,88,0.00,,,0.01,Wunderground v.1.15,2013-05-19 02:12:00,
2013-05-18 22:14:00,60.8,57.2,30.20,North,360,6.0,7.0,88,0.00,,,0.01,Wunderground v.1.15,2013-05-19 02:14:00,
2013-05-18 22:16:00,60.8,57.2,30.20,North,360,5.0,7.0,88,0.00,,,0.01,Wunderground v.1.15,2013-05-19 02:16:00,
2013-05-18 22:18:00,60.9,57.3,30.20,North,360,5.0,7.0,88,0.00,,,0.01,Wunderground v.1.15,2013-05-19 02:18:00,
2013-05-18 22:20:00,61.0,57.4,30.20,North,360,5.0,6.0,88,0.00,,,0.01,Wunderground v.1.15,2013-05-19 02:20:00,
2013-05-18 22:24:00,61.1,57.2,30.20,North,360,5.0,6.0,87,0.00,,,0.01,Wunderground v.1.15,2013-05-19 02:24:00,
2013-05-18 22:30:00,61.0,57.1,30.20,North,360,7.0,7.0,87,0.00,,,0.01,Wunderground v.1.15,2013-05-19 02:30:00,
2013-05-18 22:32:00,60.9,57.0,30.20,North,360,7.0,7.0,87,0.00,,,0.01,Wunderground v.1.15,2013-05-19 02:32:00,
2013-05-18 22:34:00,61.0,57.4,30.20,North,360,6.0,7.0,88,0.00,,,0.01,Wunderground v.1.15,2013-05-19 02:34:00,
2013-05-18 22:36:00,61.0,57.4,30.20,North,360,6.0,7.0,88,0.00,,,0.01,Wunderground v.1.15,2013-05-19 02:36:00,
2013-05-18 22:38:00,61.1,57.5,30.20,North,360,6.0,7.0,88,0.00,,,0.01,Wunderground v.1.15,2013-05-19 02:38:00,
2013-05-18 22:42:00,61.1,57.2,30.20,North,360,6.0,11.0,87,0.00,,,0.01,Wunderground v.1.15,2013-05-19 02:42:00,
2013-05-18 22:44:00,61.1,57.2,30.20,North,360,7.0,11.0,87,0.00,,,0.01,Wunderground v.1.15,2013-05-19 02:44:00,
2013-05-18 22:46:00,61.1,57.5,30.20,North,360,7.0,11.0,88,0.00,,,0.01,Wunderground v.1.15,2013-05-19 02:46:00,
2013-05-18 22:50:00,61.2,57.6,30.20,North,360,7.0,7.0,88,0.00,,,0.01,Wunderground v.1.15,2013-05-19 02:50:00,
2013-05-18 22:52:00,61.3,57.4,30.20,North,360,6.0,7.0,87,0.00,,,0.01,Wunderground v.1.15,2013-05-19 02:52:00,
2013-05-18 22:56:00,61.3,57.4,30.20,North,360,6.0,7.0,87,0.00,,,0.01,Wunderground v.1.15,2013-05-19 02:56:00,
2013-05-18 22:58:00,61.2,57.3,30.20,North,360,5.0,7.0,87,0.00,,,0.01,Wunderground v.1.15,2013-05-19 02:58:00,
2013-05-18 23:00:00,61.2,57.3,30.20,North,360,5.0,5.0,87,0.00,,,0.01,Wunderground v.1.15,2013-05-19 03:00:00,
2013-05-18 23:04:00,61.2,57.3,30.20,North,360,6.0,6.0,87,0.00,,,0.01,Wunderground v.1.15,2013-05-19 03:04:00,
2013-05-18 23:06:00,61.3,57.7,30.20,North,360,6.0,7.0,88,0.00,,,0.01,Wunderground v.1.15,2013-05-19 03:06:00,
2013-05-18 23:08:00,61.3,57.4,30.20,North,360,6.0,7.0,87,0.00,,,0.01,Wunderground v.1.15,2013-05-19 03:08:00,
2013-05-18 23:10:00,61.3,57.7,30.20,North,360,6.0,6.0,88,0.00,,,0.01,Wunderground v.1.15,2013-05-19 03:10:00,
2013-05-18 23:12:00,61.4,57.8,30.20,North,360,5.0,10.0,88,0.00,,,0.01,Wunderground v.1.15,2013-05-19 03:12:00,
2013-05-18 23:14:00,61.4,57.5,30.20,North,360,6.0,10.0,87,0.00,,,0.01,Wunderground v.1.15,2013-05-19 03:14:00,
2013-05-18 23:16:00,61.4,57.8,30.20,North,360,6.0,10.0,88,0.00,,,0.01,Wunderground v.1.15,2013-05-19 03:16:00,
2013-05-18 23:18:00,61.4,57.8,30.20,North,360,7.0,10.0,88,0.00,,,0.01,Wunderground v.1.15,2013-05-19 03:18:00,
2013-05-18 23:20:00,61.3,57.7,30.20,North,360,7.0,7.0,88,0.00,,,0.01,Wunderground v.1.15,2013-05-19 03:20:00,
2013-05-18 23:22:00,61.3,57.7,30.20,North,360,7.0,7.0,88,0.00,,,0.01,Wunderground v.1.15,2013-05-19 03:22:00,
2013-05-18 23:26:00,61.2,57.6,30.20,North,360,7.0,7.0,88,0.00,,,0.01,Wunderground v.1.15,2013-05-19 03:26:00,
2013-05-18 23:32:00,61.2,57.6,30.20,North,360,9.0,9.0,88,0.00,,,0.01,Wunderground v.1.15,2013-05-19 03:32:00,
2013-05-18 23:34:00,61.1,57.5,30.20,North,360,9.0,11.0,88,0.00,,,0.01,Wunderground v.1.15,2013-05-19 03:34:00,
2013-05-18 23:36:00,60.9,57.6,30.20,North,360,10.0,11.0,89,0.00,,,0.01,Wunderground v.1.15,2013-05-19 03:36:00,
2013-05-18 23:38:00,60.9,57.6,30.20,North,360,9.0,11.0,89,0.00,,,0.01,Wunderground v.1.15,2013-05-19 03:38:00,
2013-05-18 23:40:00,60.9,57.6,30.19,North,360,8.0,8.0,89,0.00,,,0.01,Wunderground v.1.15,2013-05-19 03:40:00,
2013-05-18 23:42:00,60.9,57.6,30.19,North,360,8.0,8.0,89,0.00,,,0.01,Wunderground v.1.15,2013-05-19 03:42:00,
2013-05-18 23:46:00,61.0,57.7,30.19,North,360,6.0,9.0,89,0.00,,,0.01,Wunderground v.1.15,2013-05-19 03:46:00,
2013-05-18 23:48:00,61.0,57.7,30.19,North,360,6.0,9.0,89,0.00,,,0.01,Wunderground v.1.15,2013-05-19 03:48:00,
2013-05-18 23:50:00,61.1,58.1,30.19,North,360,6.0,6.0,90,0.00,,,0.01,Wunderground v.1.15,2013-05-19 03:50:00,
2013-05-18 23:52:00,61.1,58.1,30.19,North,360,6.0,6.0,90,0.00,,,0.01,Wunderground v.1.15,2013-05-19 03:52:00,
2013-05-18 23:54:00,61.2,58.2,30.19,North,360,6.0,10.0,90,0.00,,,0.01,Wunderground v.1.15,2013-05-19 03:54:00,
2013-05-18 23:58:00,61.3,58.3,30.19,North,360,6.0,10.0,90,0.00,,,0.01,Wunderground v.1.15,2013-05-19 03:58:00,